Temperature
9 9 9 9 9 9 8 8 8 8 8 8 8 8 7 7 7 6 6 6 5 5 4 4 3 2 2 1 1 1 0 0 -0 -0 -1 -1 -1 -1
10 9 9 9 9 9 8 8 8 7 7 8 7 7 7 6 6 6 5 5 5 4 4 3 2 2 1 1 0 0 -0 -1 -1 -1 -1 -2 -2 -2
10 9 9 9 9 9 8 8 8 7 7 7 7 7 6 6 6 5 5 4 4 3 3 2 2 1 1 0 -0 -1 -1 -1 -1 -2 -2 -2 -2 -3
10 9 9 9 9 9 8 8 8 7 7 7 7 6 6 5 5 5 4 4 3 3 2 2 1 1 0 -0 -1 -1 -2 -2 -2 -2 -3 -3 -3 -3
10 9 9 9 9 9 8 8 8 7 7 6 6 6 5 5 5 4 4 3 3 2 2 1 0 -0 -1 -1 -1 -2 -2 -3 -3 -3 -3 -4 -4 -4
10 9 9 9 9 8 8 8 7 7 7 6 6 5 5 4 4 3 3 3 2 2 1 0 -0 -1 -1 -2 -2 -3 -3 -3 -4 -4 -4 -4 -4 -5
9 9 9 9 9 8 8 8 7 7 6 6 5 5 4 4 3 3 2 2 1 1 0 -0 -1 -1 -2 -2 -3 -3 -4 -4 -4 -5 -5 -5 -5 -5
9 9 9 8 8 8 7 7 7 6 6 5 5 4 3 3 2 2 1 1 0 0 -0 -1 -1 -2 -2 -3 -3 -4 -4 -5 -5 -5 -6 -6 -6 -6
9 9 8 8 8 7 7 7 6 6 5 5 4 3 3 2 2 1 1 -0 -1 -1 -1 -1 -2 -2 -3 -3 -4 -4 -5 -5 -5 -6 -6 -6 -7 -7
9 8 8 8 7 7 7 6 6 5 5 4 4 3 2 1 1 0 -0 -1 -1 -2 -2 -2 -2 -3 -3 -4 -4 -5 -5 -6 -6 -6 -7 -7 -7 -7
8 8 8 7 7 7 6 6 5 5 4 3 3 2 2 1 0 -0 -1 -1 -1 -2 -3 -4 -4 -4 -3 -4 -5 -5 -6 -6 -6 -7 -7 -7 -7 -7
8 8 7 7 6 6 6 5 5 4 4 3 2 2 1 0 -0 -1 -2 -2 -3 -3 -4 -4 -5 -5 -5 -5 -5 -6 -6 -6 -7 -7 -7 -7 -7 -7
8 7 7 6 6 5 5 5 4 4 3 2 2 1 0 -0 -1 -2 -2 -3 -4 -4 -5 -5 -6 -6 -7 -7 -5 -6 -7 -7 -7 -7 -7 -7 -7 -8
8 7 6 6 5 5 4 4 3 3 2 2 1 0 -0 -1 -2 -2 -3 -4 -4 -5 -5 -6 -6 -7 -8 -8 -7 -7 -7 -7 -7 -7 -7 -7 -7 -7
7 6 6 5 5 4 4 3 3 2 2 1 0 -0 -1 -2 -3 -3 -4 -4 -5 -5 -6 -6 -7 -7 -8 -8 -8 -8 -8 -7 -8 -8 -7 -7 -7 -7
6 6 5 5 4 3 3 3 2 2 1 0 -0 -1 -2 -2 -3 -3 -4 -4 -5 -5 -6 -7 -7 -7 -7 -7 -8 -8 -8 -8 -8 -8 -7 -7 -7 -8
6 5 5 4 3 3 3 2 2 1 0 -0 -1 -2 -2 -3 -4 -4 -4 -5 -5 -6 -6 -6 -7 -7 -7 -8 -7 -8 -8 -8 -8 -8 -8 -7 -7 -7
5 5 4 4 3 3 2 2 1 0 -0 -1 -2 -2 -3 -4 -4 -5 -5 -6 -6 -7 -7 -7 -7 -7 -7 -7 -8 -8 -8 -8 -8 -8 -8 -8 -7 -7
5 4 4 3 3 2 1 1 0 -0 -1 -2 -3 -3 -4 -4 -5 -5 -6 -6 -7 -7 -8 -8 -8 -8 -8 -8 -8 -8 -9 -9 -8 -8 -8 -8 -8 -7
4 4 3 3 2 2 1 0 -0 -1 -2 -2 -3 -4 -4 -5 -5 -6 -6 -7 -7 -8 -8 -8 -9 -9 -10 -10 -9 -8 -9 -9 -9 -8 -8 -8 -7 -7
4 3 3 2 2 1 0 -0 -1 -1 -2 -3 -3 -4 -4 -5 -5 -6 -7 -7 -8 -8 -8 -8 -9 -9 -9 -9 -9 -9 -8 -9 -9 -9 -9 -8 -8 -7
3 3 2 2 1 1 -0 -1 -1 -2 -3 -3 -4 -4 -5 -5 -6 -7 -7 -8 -8 -8 -8 -9 -9 -9 -9 -9 -9 -9 -8 -8 -8 -9 -9 -9 -10 -9
3 2 2 1 1 0 -1 -1 -2 -2 -3 -4 -4 -5 -5 -6 -6 -7 -7 -8 -8 -9 -9 -9 -9 -9 -9 -9 -9 -9 -9 -9 -8 -7 -8 -8 -8 -8
Wind_Speed
10 10 7 6 5 5 4 4 4 3 4 3 2 1 2 3 4 3 5 7 8 9 10 11 11 12 12 14 14 15 17 18 19 20 21 21 22 22
8 9 9 6 5 5 5 4 4 5 4 3 2 1 0 1 3 3 5 7 8 9 10 10 10 11 12 13 14 15 17 18 19 20 21 21 22 22
10 10 10 8 6 5 5 4 4 4 5 3 1 0 0 1 3 3 4 5 7 9 10 10 10 11 12 12 14 15 17 17 19 20 21 21 22 22
12 11 10 7 7 6 5 5 5 5 5 5 2 1 1 1 2 2 4 5 6 8 9 9 10 11 11 12 13 15 16 17 18 19 19 20 21 21
12 12 11 9 9 6 6 6 5 4 3 3 3 1 1 0 1 2 3 4 5 6 8 9 10 11 11 12 13 14 15 16 17 18 18 19 20 20
10 10 10 10 10 9 7 6 5 4 3 2 2 1 1 0 1 2 3 3 4 4 7 9 10 10 11 12 13 14 15 15 16 17 18 19 19 19
9 9 9 10 10 9 7 6 6 4 3 2 2 1 1 0 1 1 2 3 3 2 4 5 6 6 8 11 12 14 14 15 16 18 18 19 19 19
10 8 7 8 9 10 10 9 8 6 5 3 2 2 2 2 1 1 1 2 3 2 3 4 3 4 6 8 12 14 14 16 17 17 18 19 19 19
10 9 7 7 8 7 8 8 6 6 6 5 4 3 2 2 1 1 1 2 3 2 2 3 3 4 6 9 12 13 15 16 17 18 19 19 19 19
9 9 9 8 8 9 8 7 5 4 4 3 3 2 1 1 2 1 1 1 2 1 2 2 3 4 7 9 10 13 15 17 18 19 19 19 19 19
7 8 9 9 13 14 10 9 7 5 7 9 8 7 6 5 5 3 2 2 2 2 2 2 3 5 4 3 8 13 16 17 18 19 18 19 19 18
7 7 11 12 15 14 10 9 8 5 5 6 7 7 7 7 7 4 2 1 1 2 2 3 3 4 5 3 5 10 12 15 18 18 18 19 19 14
8 7 7 14 15 13 11 7 9 8 6 6 5 4 4 4 4 4 3 1 1 2 2 2 2 2 3 5 5 5 8 10 12 12 16 19 19 15
9 8 9 16 15 14 10 11 13 10 6 5 4 3 2 2 2 3 4 3 0 3 4 2 2 2 3 5 6 5 7 9 8 7 11 17 17 17
10 14 16 17 14 10 12 14 11 6 5 5 3 2 1 1 2 2 4 5 4 4 3 4 3 3 4 5 5 5 6 6 6 6 9 10 9 10
12 15 18 17 12 12 11 8 6 5 5 4 3 2 2 2 2 2 2 3 3 3 5 6 6 4 4 6 6 7 6 5 7 9 10 10 10 10
13 10 8 8 7 6 6 6 5 5 5 4 4 3 2 2 2 2 2 2 2 3 4 5 8 8 7 6 4 6 6 7 7 9 10 11 9 8
14 10 9 8 8 7 6 5 4 4 4 4 3 3 2 2 2 2 2 2 2 3 3 4 6 6 4 3 5 5 6 6 8 9 8 8 10 9
10 9 9 8 7 7 6 5 4 4 4 4 3 3 2 2 1 2 2 2 3 3 3 3 3 4 6 7 6 5 5 8 9 9 7 7 9 12
8 9 9 8 7 7 6 5 5 5 4 4 3 3 2 2 1 1 2 2 3 3 4 4 3 3 3 5 5 7 11 8 8 9 9 8 8 12
8 8 8 8 7 7 6 6 5 5 4 4 3 2 2 2 1 1 1 4 3 2 4 5 5 9 4 3 5 6 7 12 12 9 9 8 7 5
9 8 7 7 7 7 7 6 5 5 4 3 3 2 2 1 1 0 1 2 2 3 4 5 6 5 2 3 6 7 8 9 14 15 11 8 5 6
9 9 8 8 7 7 6 6 6 5 4 3 3 2 2 1 1 0 1 2 2 4 4 5 5 4 3 3 5 6 9 10 8 9 7 12 15 16
Wind_Direction
198 196 199 200 193 190 178 173 180 233 265 254 256 295 266 263 278 285 280 289 295 294 295 297 300 303 307 310 311 313 314 315 315 314 314 314 314 314
194 196 203 200 193 188 187 186 187 197 239 241 223 245 20 328 307 300 286 299 302 300 300 301 303 307 309 311 312 313 314 315 316 315 315 315 315 316
193 196 203 196 193 193 186 185 192 189 229 254 220 231 165 327 342 324 304 307 307 304 306 307 310 312 310 312 315 317 317 318 317 316 317 317 317 317
195 194 201 195 194 191 188 194 199 197 208 241 249 242 245 299 322 323 326 323 312 309 312 314 314 315 317 318 320 320 321 321 320 320 320 319 320 319
193 195 197 189 197 193 190 196 198 194 198 216 243 230 235 336 329 319 326 327 323 316 318 317 318 323 324 324 322 322 324 325 324 323 323 323 322 321
190 192 192 192 196 191 192 193 183 179 181 199 229 234 244 329 335 309 318 324 320 326 327 322 324 328 327 326 325 327 328 329 331 331 329 329 327 325
183 186 188 187 187 183 181 179 172 175 174 186 208 218 242 304 294 291 298 317 309 326 327 320 321 325 328 328 327 328 331 333 334 333 332 330 329 327
177 175 171 171 169 164 161 160 162 168 180 178 189 208 241 243 252 280 292 334 308 338 334 311 324 312 319 320 325 331 334 335 334 333 332 330 329 328
172 168 161 161 155 148 142 135 135 138 151 163 171 199 211 214 197 248 266 270 271 312 336 298 322 309 317 319 327 332 335 336 336 333 331 328 327 325
166 164 159 155 152 141 131 121 108 101 121 125 144 151 142 138 139 164 245 294 299 325 6 300 312 307 315 316 324 336 339 337 335 333 331 329 327 326
150 151 152 149 146 139 134 128 116 97 92 100 99 93 85 82 91 80 48 22 332 324 9 329 311 313 306 301 319 332 335 335 334 333 332 332 331 331
140 143 145 145 147 144 143 141 139 135 115 98 83 72 66 65 66 71 94 57 346 308 344 344 323 336 320 302 308 318 324 328 333 333 333 334 334 333
146 144 145 144 144 143 138 140 143 135 120 109 95 78 63 55 49 47 57 109 144 265 309 350 319 321 296 304 306 304 313 318 323 324 332 333 333 333
146 143 140 138 136 134 129 128 126 120 113 108 101 89 71 50 33 31 35 33 327 247 277 292 267 285 298 298 295 305 312 311 314 317 324 328 329 329
136 137 133 131 127 124 123 124 121 116 117 114 113 103 87 75 48 29 24 18 4 341 322 306 280 278 267 271 288 299 313 312 317 320 321 321 317 318
125 125 122 119 112 113 114 109 104 117 120 122 119 104 81 64 48 27 13 2 2 342 334 330 316 292 279 273 275 288 295 298 313 320 320 315 311 309
128 118 116 120 117 111 104 99 98 102 100 102 110 105 88 63 38 22 26 19 9 332 327 330 331 313 272 264 283 288 298 302 305 317 322 318 311 306
130 134 135 136 136 134 130 118 106 108 108 111 111 107 103 86 52 22 23 22 353 327 322 325 338 343 339 300 244 275 294 301 311 315 315 314 310 311
129 137 141 142 139 137 136 132 127 123 117 116 115 112 107 92 66 31 14 2 346 331 322 326 344 356 347 331 309 287 298 311 314 315 310 304 301 304
134 142 144 143 142 140 138 131 127 125 120 119 116 113 108 101 75 31 8 348 334 330 327 329 333 333 311 301 299 298 305 304 308 311 310 307 293 293
138 137 140 142 140 138 136 134 134 135 132 127 124 121 117 108 86 20 355 348 353 337 327 316 302 319 301 293 299 299 299 311 312 305 306 311 310 307
138 137 137 137 136 135 135 135 133 131 131 128 130 126 124 125 127 20 353 340 328 315 304 300 311 326 336 312 306 304 307 315 322 322 311 297 306 313
139 138 137 137 134 134 135 136 136 138 141 140 137 136 134 126 111 66 331 323 322 323 322 321 329 332 314 294 297 301 308 318 321 327 317 322 323 311
Height
1510 1513 1515 1517 1519 1520 1522 1523 1523 1522 1521 1521 1521 1520 1519 1518 1516 1514 1512 1510 1508 1505 1503 1500 1498 1495 1492 1490 1487 1484 1481 1478 1475 1471 1468 1465 1462 1458
1505 1508 1510 1512 1514 1516 1517 1518 1519 1519 1517 1516 1516 1516 1514 1513 1512 1510 1507 1505 1503 1500 1498 1495 1492 1490 1487 1484 1481 1478 1475 1472 1469 1466 1462 1459 1456 1453
1500 1502 1505 1508 1509 1511 1512 1513 1514 1514 1513 1512 1512 1511 1510 1508 1507 1505 1503 1500 1498 1495 1493 1490 1487 1484 1481 1479 1476 1473 1470 1466 1463 1460 1457 1453 1450 1447
1494 1497 1500 1502 1504 1506 1507 1508 1509 1509 1509 1507 1507 1506 1505 1504 1502 1500 1498 1496 1493 1491 1488 1485 1482 1479 1476 1474 1470 1467 1464 1461 1458 1454 1451 1448 1444 1441
1488 1491 1494 1497 1499 1501 1502 1503 1504 1504 1504 1503 1501 1501 1500 1499 1497 1496 1494 1491 1489 1486 1483 1480 1478 1475 1471 1468 1465 1462 1459 1456 1452 1449 1445 1442 1439 1436
1483 1486 1489 1492 1494 1496 1497 1498 1499 1499 1499 1498 1497 1496 1495 1494 1493 1491 1488 1486 1484 1482 1479 1476 1473 1470 1467 1463 1460 1457 1454 1451 1447 1444 1440 1437 1434 1431
1478 1481 1484 1487 1489 1491 1492 1493 1494 1494 1494 1493 1493 1492 1491 1489 1488 1486 1484 1482 1479 1477 1475 1472 1469 1466 1463 1459 1456 1453 1449 1446 1443 1439 1436 1432 1429 1426
1473 1476 1479 1482 1484 1486 1487 1488 1489 1489 1489 1489 1488 1488 1487 1486 1484 1482 1480 1477 1474 1473 1470 1468 1465 1462 1458 1455 1452 1448 1445 1442 1438 1435 1431 1428 1425 1421
1468 1471 1474 1477 1479 1481 1483 1484 1485 1485 1486 1486 1485 1484 1483 1482 1481 1479 1477 1474 1472 1469 1466 1463 1461 1458 1454 1451 1448 1445 1441 1437 1434 1430 1427 1423 1420 1417
1464 1467 1470 1472 1475 1477 1479 1480 1481 1481 1482 1481 1481 1480 1480 1479 1478 1476 1474 1472 1469 1466 1463 1459 1456 1453 1451 1448 1444 1441 1437 1434 1430 1426 1422 1419 1415 1412
1460 1463 1466 1468 1471 1473 1475 1476 1477 1478 1478 1478 1478 1477 1476 1475 1474 1473 1471 1468 1465 1463 1460 1457 1452 1449 1446 1444 1442 1438 1434 1430 1426 1422 1418 1414 1411 1407
1456 1459 1462 1465 1467 1469 1471 1472 1474 1474 1475 1475 1475 1474 1473 1472 1471 1470 1467 1465 1462 1460 1457 1455 1451 1447 1442 1440 1438 1435 1430 1426 1422 1418 1414 1410 1406 1402
1452 1455 1458 1461 1464 1466 1468 1470 1471 1471 1472 1472 1472 1471 1471 1470 1468 1467 1465 1463 1461 1458 1456 1452 1449 1445 1442 1437 1433 1431 1427 1422 1418 1415 1411 1407 1403 1399
1448 1452 1455 1458 1461 1463 1465 1467 1468 1469 1469 1469 1469 1469 1468 1467 1466 1464 1463 1461 1459 1457 1454 1451 1448 1444 1440 1434 1430 1426 1424 1420 1416 1412 1408 1404 1400 1397
1445 1449 1452 1456 1459 1461 1463 1464 1465 1466 1466 1466 1466 1466 1466 1465 1463 1462 1461 1459 1457 1455 1452 1449 1446 1442 1439 1434 1429 1425 1420 1416 1413 1409 1404 1401 1397 1393
1443 1446 1450 1453 1456 1458 1460 1462 1463 1464 1464 1464 1464 1464 1463 1463 1461 1460 1458 1457 1455 1453 1451 1447 1444 1440 1436 1432 1428 1424 1420 1415 1411 1406 1402 1398 1395 1391
1440 1443 1447 1450 1453 1455 1457 1459 1460 1461 1462 1462 1462 1462 1461 1460 1459 1458 1456 1454 1452 1450 1448 1445 1442 1439 1435 1430 1426 1422 1418 1414 1409 1404 1399 1395 1392 1389
1437 1441 1444 1448 1450 1453 1455 1457 1458 1459 1459 1460 1460 1460 1459 1458 1457 1456 1455 1453 1451 1448 1446 1442 1439 1435 1432 1428 1426 1420 1416 1411 1407 1403 1398 1393 1388 1386
1435 1438 1442 1445 1448 1451 1453 1455 1456 1457 1458 1458 1458 1458 1458 1457 1456 1454 1453 1451 1449 1447 1445 1441 1438 1434 1430 1426 1423 1421 1415 1409 1404 1400 1396 1392 1386 1383
1433 1437 1440 1443 1446 1449 1451 1453 1454 1455 1456 1456 1457 1456 1456 1455 1454 1453 1451 1450 1448 1446 1443 1441 1437 1434 1430 1427 1422 1418 1415 1408 1402 1397 1393 1389 1385 1382
1431 1435 1439 1442 1445 1447 1449 1451 1452 1453 1454 1455 1455 1455 1455 1454 1453 1452 1450 1448 1447 1444 1442 1439 1437 1434 1430 1426 1422 1417 1413 1409 1403 1397 1391 1386 1381 1377
1430 1433 1437 1440 1443 1445 1447 1449 1450 1452 1453 1453 1454 1454 1453 1453 1452 1450 1449 1447 1445 1443 1441 1439 1436 1433 1429 1425 1420 1415 1410 1407 1403 1399 1393 1388 1383 1377
1428 1432 1436 1439 1441 1444 1446 1447 1449 1450 1451 1452 1452 1452 1452 1451 1450 1449 1448 1446 1444 1442 1440 1437 1434 1431 1427 1424 1419 1415 1410 1405 1401 1396 1393 1389 1385 1380